weather.gov     
National Weather Service

Regional Weather Roundup
NWS Homepage
This page is being discontinued on March 12, 2014.
The same data is available at this site. Please update your bookmarks.
Thank you, and we apologize for the inconvenience.
Please send an email to SR-SRH.Webmaster@noaa.gov with any concerns.


Current Version
Previous Version:    01  02  03  04  05  06  07  08  09  
[Printable]
068
ASUS42 KTBW 201110
RWRFL
FLORIDA REGIONAL WEATHER ROUNDUP
NATIONAL WEATHER SERVICE TAMPA BAY RUSKIN FL
600 AM EST SAT DEC 20 2014

NOTE: "FAIR" INDICATES FEW OR NO CLOUDS BELOW 12,000 FEET WITH NO
SIGNIFICANT WEATHER AND/OR OBSTRUCTIONS TO VISIBILITY.


FLZ001>010-012>015-112-114-115-201200-
PANHANDLE FLORIDA

CITY           SKY/WX    TMP DP  RH WIND       PRES   REMARKS
PENSACOLA      RAIN      46  46 100 NE12      30.09R FOG     WCI  41
PENSACOLA NAS  LGT RAIN  48  47  96 N14       30.08R WCI  42
MILTON NAS     LGT RAIN  48  48 100 E9        30.10R WCI  44
CRESTVIEW      LGT RAIN  48  46  93 N8        30.13R WCI  44
DUKE FIELD     CLOUDY    48  46  93 N10       30.11R WCI  44
VALPARAISO     LGT RAIN  48  46  93 NE12      30.10R WCI  43
MARY ESTHER    RAIN      49  45  87 N15       30.08R WCI  43
PANAMA CITY    CLOUDY    49  46  90 NE6       30.06R
TYNDALL AFB    CLOUDY    50  48  92 E8        30.07S
APALACHICOLA   CLOUDY    54  48  80 NE8       30.06S

STATION/POSITION SKY/WX   TEMP    WIND        PRES    WAVE   SWELL
                          AIR SEA DIR/SP/G            HT/PER HT/PER
                          (F)     (DEG/KT/KT) (MB)    (FT/S) (FT/S)
30.1N   87.6W              53 65   20/ 19/ 23 1017.2R   4/ 5
29.2N   88.2W              69 75  120/ 19/ 23 1015.0R   5/ 6
28.7N   86.0W              68 75  100/ 16/ 17 1016.9F   3/ 5
PANAMA CITY BEAC           50 61   40/  9/ 12 1017.5R
CAPE SAN BLAS    NOT AVBL
TOWER C                    59      60/ 18/ 19 1017.9R
28.5N   84.5W              66 71   90/ 12/ 12 1017.3R   2/ 3

$$
FLZ011-016>038-118-127-128-134-139-239-201200-
NORTH FLORIDA

CITY           SKY/WX    TMP DP  RH WIND       PRES   REMARKS
MARIANNA       CLOUDY    49  49 100 NE6       30.09R
TALLAHASSEE    CLOUDY    52  46  80 NE5       30.09R
PERRY          CLOUDY    52  48  84 NE3       30.10R
CROSS CITY       N/A     50  44  80 CALM      30.09R
LAKE CITY      MOCLDY    52  45  76 NE3       30.09S
GAINESVILLE    MOCLDY    47  44  90 CALM      30.09R
MAYPORT NAS    MOCLDY    60  51  72 N7        30.10R
JACKSONVILLE   CLOUDY    52  52 100 NE5       30.09S
JAX NAS        MOCLDY    59  50  72 N8        30.11R
JAX CRAIG      MOCLDY    55  51  86 N5        30.11R
JAX CECIL      CLOUDY    50  48  93 CALM      30.10S
FERNANDINA BEA FAIR      59  55  88 CALM      30.09R
ST AUGUSTINE   MOCLDY    54  52  93 CALM      30.10R

STATION/POSITION SKY/WX   TEMP    WIND        PRES    WAVE   SWELL
                          AIR SEA DIR/SP/G            HT/PER HT/PER
                          (F)     (DEG/KT/KT) (MB)    (FT/S) (FT/S)
SHELL POINT                52      40/  4/  9   N/A
KEATON BEACH               53      60/  7/ 10 1018.7R
CEDAR KEY                  54      60/  9/ 11 1018.4F
FERNANDINA                 56 59   20/  4/  6 1018.9R
30.7N   81.3W                 61                N/A     2/10
MAYPORT                    59 62   10/  4/  5   N/A
31.4N   80.9W              58 57   20/ 12/ 14 1019.2F   1/10   2/10
ST AUGUSTINE               63      30/  8/  8 1019.5R

$$
FLZ040-043>046-052-053-057-058-063-144-201200-
INTERIOR CENTRAL FLORIDA

CITY           SKY/WX    TMP DP  RH WIND       PRES   REMARKS
OCALA          MOCLDY    46  45  93 CALM      30.09R
THE VILLAGES     N/A     52  52 100 CALM      29.98S FOG
LEESBURG       CLEAR     51  50  96 NE5       30.09R
SANFORD        CLEAR     55  53  93 CALM      30.09R
ORLANDO EXEC   PTCLDY    57  54  89 CALM      30.08R
ORLANDO INTL   PTCLDY    57  54  89 N5        30.08R
WINTER HAVEN   PTCLDY    55  53  93 CALM      30.08R
BARTOW         FAIR      52  48  87 CALM      30.08R
OKEECHOBEE     PTCLDY    52  50  93 CALM      30.08R

$$
FLZ041-047-054-059-064-141-147-201200-
EAST CENTRAL FLORIDA

CITY           SKY/WX    TMP DP  RH WIND       PRES   REMARKS
DAYTONA BEACH  PTCLDY    57  56  96 CALM      30.09R
DELAND         MOSUNNY  N/A N/A N/A CALM      30.09R
JFK SPACE CTR  CLEAR     52  51  95 NW2       30.08R
CAPE CANAVERAL PTCLDY    54  51  92 NW5       30.07R
PATRICK AFB    PTCLDY    58  58  99 W3        30.07R
MELBOURNE      PTCLDY    54  52  93 W3        30.07R
VERO BEACH     MOCLDY    58  55  90 W3        30.07R
FT PIERCE      MOCLDY    56  54  93 CALM      30.07R

STATION/POSITION SKY/WX   TEMP    WIND        PRES    WAVE   SWELL
                          AIR SEA DIR/SP/G            HT/PER HT/PER
                          (F)     (DEG/KT/KT) (MB)    (FT/S) (FT/S)
28.5N   80.2W              72 75  150/  6/ 10 1017.8S
28.9N   78.5W              71 76  180/  6/  8 1018.8R   2/11   2/11
TRIDENT PIER               58 65  350/  1/  2 1017.7R
28.4N   80.5W                 66                N/A     1/11
27.6N   80.2W                 76                N/A     2/10

$$
FLZ050-056-061-142-242-148-248-149-249-151-251-155-255-
160-260-201200-
WEST CENTRAL FLORIDA

CITY           SKY/WX    TMP DP  RH WIND       PRES   REMARKS
CRYSTAL RIVER  FAIR      48  45  87 CALM      30.08R
INVERNESS      FAIR      46  45  93 CALM      30.09R
BROOKSVILLE    CLEAR     48  46  93 CALM      30.08R
ZEPHYRHILLS    FAIR      45  45 100 CALM      30.08R
CLEARWATER     PTCLDY    58  55  90 E5        30.06R
TAMPA INTL     PTCLDY    56  49  77 CALM      30.07S
TAMPA EXEC     PTCLDY    50  46  87 CALM      30.07S
PLANT CITY     PTCLDY    54 N/A N/A CALM      30.09R
MACDILL AFB    PTCLDY    53  53  97 E6        30.06R
PETER O KNIGHT PTCLDY    57  54  88 CALM      30.07R
ST PETERSBURG  PTCLDY    61  56  83 E5        30.05R
SARASOTA       MOCLDY    55  54  96 E6        30.04R
VENICE         FAIR      54  54 100 E3        30.07R

STATION/POSITION SKY/WX   TEMP    WIND        PRES    WAVE   SWELL
                          AIR SEA DIR/SP/G            HT/PER HT/PER
                          (F)     (DEG/KT/KT) (MB)    (FT/S) (FT/S)
CEDAR KEY                  54      60/  9/ 11 1018.4F
28.5N   84.5W              66 71   90/ 12/ 12 1017.3R   2/ 3
27.3N   84.3W                 75                N/A     2/ 3
CLEARWATER BEACH           59 64  100/  7/  9 1017.2S
MIDDLE TAMPA BAY           59     130/  9/  9 1017.8R
VENICE                     56 64   80/  8/  9 1017.5R

$$
FLZ066-069-070-075>078-162-262-165-265-201200-
SOUTHWEST FLORIDA AND KEYS

CITY           SKY/WX    TMP DP  RH WIND       PRES   REMARKS
PUNTA GORDA    PTCLDY    50  50 100 E5        30.08R FOG
FT MYERS       CLEAR     55  52  89 CALM      30.05R
SOUTHWEST INTL CLEAR     54  52  93 NE5       30.06R
NAPLES           N/A    N/A N/A N/A CALM      30.04R
MARCO ISLAND   PTSUNNY   55  52  88 CALM      30.05R
MARATHON       PTCLDY    71  64  78 SE3       30.04R
KEY WEST NAS   MOCLDY    70  63  78 SE6       30.04R
KEY WEST INTL  PTCLDY    73  64  73 SE6       30.05R

STATION/POSITION SKY/WX   TEMP    WIND        PRES    WAVE   SWELL
                          AIR SEA DIR/SP/G            HT/PER HT/PER
                          (F)     (DEG/KT/KT) (MB)    (FT/S) (FT/S)
VENICE                     56 64   80/  8/  9 1017.5R
NAPLES                     60 72  100/  5/  6 1017.7R
26.0N   85.6W              73 76  140/ 10/ 12 1015.8R   3/ 6   2/ 6
DRY TORTUGAS               71     100/  8/  9 1016.3R
NW FL BAY                  68      70/  6/  7 1016.9S
SAND KEY                   74     130/ 10/ 12 1017.2R
SOMBRERO KEY               74     130/ 10/ 12 1018.0R
LONG KEY                   71 69  110/  6/  7 1017.2F
MOLASSES REEF              74 76  150/  8/ 10 1017.6R

$$
FLZ067-068-071>074-168-172>174-201200-
SOUTHEAST FLORIDA

CITY           SKY/WX    TMP DP  RH WIND       PRES   REMARKS
W PALM BEACH   PTCLDY    63  60  90 CALM      30.05R
FT LAUDER-EXEC CLEAR     59  56  89 CALM      30.05R
FT LAUDERDALE  MOCLDY    66  59  78 S3        30.04S
POMPANO BEACH  PTCLDY    69  56  62 SE8       30.05R
PEMBROKE PINES CLEAR     59  57  93 CALM      30.06R
OPA LOCKA      CLEAR     56  56 100 CALM      30.06R
MIAMI          CLEAR     63  59  87 CALM      30.06R
WEST KENDALL   CLEAR    N/A N/A N/A CALM      30.06R
HOMESTEAD      CLEAR     59  57  94 N2        30.05R

STATION/POSITION SKY/WX   TEMP    WIND        PRES    WAVE   SWELL
                          AIR SEA DIR/SP/G            HT/PER HT/PER
                          (F)     (DEG/KT/KT) (MB)    (FT/S) (FT/S)
PORT EVERGLADES            73     130/  9/ 12 1017.3
VIRGINIA KEY               72 72  130/  6/  7 1018.0R
LAKE WORTH                 70 76  210/  4/  7 1017.8R
SETTLEMENT POINT           70      80/ 10/ 11 1019.0R

$$





U.S. Dept. of Commerce
NOAA National Weather Service
1325 East West Highway
Silver Spring, MD 20910
E-mail: w-nws.webmaster@noaa.gov
Page last modified: May 16, 2007
NATIONAL WEATHER SERVICE: for Safety, for Work, for Fun - FOR LIFE